| time (UTC) | temp F | wind direction | speed MPH | gust MPH | rain 1hr in | rain 24hr in | rain mn in | humidity % | barometer mb |
| 20260509140408 | 55 | 346 | 6.0 | 13.0 | 0.00 | 0.11 | 0.00 | 84 | 999.8 |
| 20260509135907 | 54 | 212 | 5.0 | 12.0 | 0.00 | 0.11 | 0.00 | 84 | 1000.0 |
| 20260509135407 | 54 | 223 | 5.0 | 13.0 | 0.00 | 0.11 | 0.00 | 83 | 1000.0 |
| 20260509134408 | 54 | 220 | 5.0 | 12.0 | 0.00 | 0.11 | 0.00 | 83 | 1000.0 |
| 20260509133907 | 54 | 220 | 5.0 | 13.0 | 0.00 | 0.11 | 0.00 | 83 | 1000.0 |
| 20260509133408 | 54 | 229 | 5.0 | 15.0 | 0.00 | 0.11 | 0.00 | 83 | 999.9 |
| 20260509132907 | 54 | 303 | 5.0 | 14.0 | 0.00 | 0.11 | 0.00 | 84 | 1000.0 |
| 20260509132409 | 54 | 269 | 5.0 | 12.0 | 0.00 | 0.11 | 0.00 | 83 | 1000.2 |
| 20260509131906 | 55 | 316 | 3.0 | 12.0 | 0.00 | 0.11 | 0.00 | 83 | 1000.1 |
| 20260509131408 | 55 | 255 | 5.0 | 13.0 | 0.00 | 0.11 | 0.00 | 83 | 1000.2 |
| 20260509130907 | 55 | 313 | 5.0 | 21.0 | 0.00 | 0.11 | 0.00 | 84 | 1000.2 |
| 20260509130409 | 55 | 312 | 5.0 | 13.0 | 0.00 | 0.11 | 0.00 | 84 | 1000.2 |
| 20260509125907 | 55 | 286 | 3.0 | 13.0 | 0.06 | 0.11 | 0.00 | 84 | 1000.2 |
| 20260509125408 | 54 | 206 | 7.0 | 15.0 | 0.06 | 0.11 | 0.00 | 84 | 1000.2 |
| 20260509124907 | 55 | 229 | 3.0 | 12.0 | 0.06 | 0.11 | 0.00 | 84 | 1000.1 |
| 20260509124409 | 55 | 268 | 3.0 | 17.0 | 0.06 | 0.11 | 0.00 | 84 | 1000.1 |
| 20260509123907 | 54 | 281 | 7.0 | 17.0 | 0.06 | 0.11 | 0.00 | 84 | 1000.0 |
| 20260509123408 | 54 | 283 | 6.0 | 14.0 | 0.06 | 0.11 | 0.00 | 84 | 1000.1 |
| 20260509122906 | 54 | 256 | 3.0 | 12.0 | 0.06 | 0.11 | 0.00 | 85 | 1000.3 |
| 20260509122409 | 54 | 228 | 6.0 | 12.0 | 0.06 | 0.11 | 0.00 | 85 | 1000.4 |
| 20260509121907 | 54 | 221 | 5.0 | 15.0 | 0.06 | 0.11 | 0.00 | 85 | 1000.4 |
| 20260509121408 | 54 | 270 | 5.0 | 16.0 | 0.06 | 0.11 | 0.00 | 85 | 1000.4 |
| 20260509120907 | 54 | 206 | 7.0 | 16.0 | 0.06 | 0.11 | 0.00 | 85 | 1000.5 |
| 20260509120408 | 54 | 213 | 6.0 | 14.0 | 0.06 | 0.11 | 0.00 | 84 | 1000.5 |
| 20260509115907 | 54 | 221 | 7.0 | 18.0 | 0.00 | 1.09 | 0.06 | 84 | 1000.5 |
| 20260509114907 | 54 | 190 | 7.0 | 21.0 | 0.00 | 1.09 | 0.06 | 83 | 1000.4 |
| 20260509114409 | 54 | 208 | 6.0 | 18.0 | 0.00 | 1.09 | 0.06 | 83 | 1000.5 |
| 20260509113907 | 54 | 222 | 7.0 | 12.0 | 0.00 | 1.09 | 0.06 | 83 | 1000.4 |
| 20260509113408 | 54 | 233 | 5.0 | 18.0 | 0.00 | 1.09 | 0.06 | 83 | 1000.5 |
| 20260509112907 | 54 | 214 | 7.0 | 15.0 | 0.00 | 1.09 | 0.06 | 82 | 1000.4 |
| 20260509112407 | 54 | 216 | 6.0 | 15.0 | 0.00 | 1.09 | 0.06 | 82 | 1000.4 |
| 20260509111907 | 54 | 217 | 6.0 | 13.0 | 0.00 | 1.09 | 0.06 | 82 | 1000.5 |
| 20260509111408 | 55 | 205 | 6.0 | 13.0 | 0.00 | 1.09 | 0.06 | 82 | 1000.4 |
| 20260509110407 | 55 | 203 | 8.0 | 20.0 | 0.00 | 1.09 | 0.06 | 81 | 1000.4 |
| 20260509105907 | 54 | 205 | 9.0 | 17.0 | 0.00 | 1.09 | 0.06 | 81 | 1000.4 |
| 20260509105408 | 54 | 210 | 8.0 | 16.0 | 0.00 | 1.09 | 0.06 | 81 | 1000.3 |
| 20260509104907 | 54 | 224 | 8.0 | 18.0 | 0.00 | 1.09 | 0.06 | 81 | 1000.3 |
| 20260509103907 | 54 | 215 | 6.0 | 17.0 | 0.00 | 1.09 | 0.06 | 82 | 1000.4 |
| 20260509102907 | 54 | 282 | 4.0 | 12.0 | 0.00 | 1.09 | 0.06 | 83 | 1000.6 |
| 20260509102407 | 54 | 234 | 5.0 | 14.0 | 0.00 | 1.09 | 0.06 | 83 | 1000.6 |
| 20260509101907 | 54 | 217 | 5.0 | 14.0 | 0.00 | 1.09 | 0.06 | 84 | 1000.7 |
| 20260509101408 | 54 | 239 | 5.0 | 10.0 | 0.00 | 1.09 | 0.06 | 85 | 1000.7 |
| 20260509100906 | 54 | 216 | 5.0 | 10.0 | 0.00 | 1.09 | 0.06 | 85 | 1000.7 |
| 20260509100407 | 54 | 312 | 6.0 | 13.0 | 0.00 | 1.09 | 0.06 | 86 | 1000.8 |
| 20260509095907 | 53 | 229 | 3.0 | 10.0 | 0.00 | 1.09 | 0.06 | 86 | 1000.8 |
| 20260509095407 | 53 | 253 | 4.0 | 12.0 | 0.00 | 1.09 | 0.06 | 86 | 1000.8 |
| 20260509094907 | 53 | 281 | 3.0 | 10.0 | 0.00 | 1.09 | 0.06 | 87 | 1000.7 |
| 20260509094407 | 53 | 341 | 3.0 | 12.0 | 0.00 | 1.09 | 0.06 | 87 | 1000.6 |
| 20260509093908 | 53 | 263 | 5.0 | 15.0 | 0.00 | 1.09 | 0.06 | 87 | 1000.7 |
| 20260509093408 | 53 | 232 | 4.0 | 10.0 | 0.00 | 1.09 | 0.06 | 87 | 1000.7 |
| 20260509092908 | 53 | 291 | 3.0 | 8.0 | 0.00 | 1.09 | 0.06 | 87 | 1000.7 |
| 20260509092408 | 53 | 284 | 4.0 | 9.0 | 0.00 | 1.09 | 0.06 | 87 | 1000.7 |
| 20260509091906 | 53 | 256 | 4.0 | 12.0 | 0.00 | 1.09 | 0.06 | 87 | 1000.6 |
| 20260509091408 | 53 | 262 | 3.0 | 7.0 | 0.00 | 1.09 | 0.06 | 87 | 1000.7 |
| 20260509090907 | 53 | 270 | 3.0 | 9.0 | 0.00 | 1.09 | 0.06 | 87 | 1000.7 |
| 20260509090408 | 54 | 294 | 2.0 | 6.0 | 0.00 | 1.09 | 0.06 | 87 | 1000.7 |
| 20260509085908 | 54 | 298 | 2.0 | 8.0 | 0.00 | 1.09 | 0.06 | 87 | 1000.7 |
| 20260509085408 | 54 | 252 | 2.0 | 10.0 | 0.00 | 1.09 | 0.06 | 87 | 1000.7 |
| 20260509084907 | 54 | 203 | 3.0 | 14.0 | 0.00 | 1.09 | 0.06 | 86 | 1000.7 |
| 20260509084406 | 55 | 218 | 5.0 | 12.0 | 0.00 | 1.09 | 0.06 | 86 | 1000.7 |
| 20260509083906 | 55 | 204 | 7.0 | 15.0 | 0.00 | 1.09 | 0.06 | 86 | 1000.6 |
| 20260509082907 | 54 | 315 | 5.0 | 13.0 | 0.00 | 1.09 | 0.06 | 84 | 1000.4 |
| 20260509082406 | 55 | 219 | 5.0 | 16.0 | 0.00 | 1.09 | 0.06 | 84 | 1000.3 |
| 20260509081907 | 55 | 244 | 4.0 | 12.0 | 0.00 | 1.09 | 0.06 | 84 | 1000.3 |
| 20260509080907 | 54 | 275 | 3.0 | 9.0 | 0.00 | 1.09 | 0.06 | 84 | 1000.4 |
| 20260509080406 | 54 | 228 | 6.0 | 18.0 | 0.00 | 1.09 | 0.06 | 83 | 1000.5 |
| 20260509075406 | 54 | 252 | 5.0 | 12.0 | 0.00 | 1.09 | 0.06 | 83 | 1000.5 |
| 20260509074407 | 55 | 324 | 4.0 | 12.0 | 0.00 | 1.09 | 0.06 | 84 | 1000.4 |
| 20260509073907 | 55 | 227 | 5.0 | 13.0 | 0.00 | 1.09 | 0.06 | 84 | 1000.4 |
| 20260509073407 | 55 | 241 | 5.0 | 12.0 | 0.00 | 1.09 | 0.06 | 84 | 1000.3 |
| 20260509072907 | 55 | 296 | 6.0 | 12.0 | 0.00 | 1.09 | 0.06 | 84 | 1000.3 |
| 20260509072407 | 56 | 236 | 7.0 | 18.0 | 0.00 | 1.09 | 0.06 | 83 | 1000.2 |
| 20260509071406 | 56 | 316 | 8.0 | 15.0 | 0.00 | 1.09 | 0.06 | 82 | 1000.0 |
| 20260509070906 | 56 | 248 | 5.0 | 20.0 | 0.00 | 1.09 | 0.06 | 81 | 999.9 |
| 20260509065907 | 56 | 223 | 6.0 | 18.0 | 0.00 | 1.09 | 0.06 | 81 | 1000.0 |
| 20260509065406 | 56 | 261 | 6.0 | 15.0 | 0.00 | 1.09 | 0.06 | 81 | 1000.1 |
| 20260509064907 | 56 | 233 | 6.0 | 16.0 | 0.00 | 1.09 | 0.06 | 80 | 1000.0 |
| 20260509064406 | 56 | 288 | 6.0 | 13.0 | 0.00 | 1.09 | 0.06 | 79 | 1000.1 |
| 20260509063907 | 56 | 183 | 5.0 | 18.0 | 0.00 | 1.09 | 0.06 | 78 | 1000.2 |
| 20260509063407 | 56 | 337 | 5.0 | 13.0 | 0.00 | 1.09 | 0.06 | 78 | 1000.2 |
| 20260509062907 | 55 | 299 | 5.0 | 12.0 | 0.00 | 1.09 | 0.06 | 79 | 1000.1 |
| 20260509062407 | 55 | 215 | 5.0 | 18.0 | 0.00 | 1.09 | 0.06 | 79 | 1000.1 |
| 20260509061906 | 55 | 233 | 6.0 | 12.0 | 0.00 | 1.09 | 0.06 | 79 | 1000.1 |
| 20260509060907 | 55 | 307 | 5.0 | 13.0 | 0.00 | 1.09 | 0.06 | 78 | 999.9 |
| 20260509060406 | 55 | 212 | 3.0 | 13.0 | 0.00 | 1.09 | 0.06 | 79 | 999.9 |
| 20260509055906 | 55 | 219 | 3.0 | 12.0 | 0.00 | 1.09 | 0.06 | 78 | 999.7 |
| 20260509054907 | 55 | 0 | 2.0 | 12.0 | 0.00 | 1.09 | 0.06 | 79 | 999.6 |
| 20260509054406 | 56 | 230 | 6.0 | 17.0 | 0.00 | 1.10 | 0.06 | 78 | 999.5 |
| 20260509053407 | 56 | 316 | 5.0 | 12.0 | 0.00 | 1.13 | 0.06 | 78 | 999.5 |
| 20260509052906 | 56 | 257 | 4.0 | 17.0 | 0.00 | 1.13 | 0.06 | 78 | 999.6 |
| 20260509052407 | 56 | 234 | 5.0 | 17.0 | 0.01 | 1.14 | 0.06 | 78 | 999.5 |
| 20260509051907 | 56 | 214 | 6.0 | 12.0 | 0.01 | 1.15 | 0.06 | 79 | 999.6 |
| 20260509051407 | 56 | 217 | 5.0 | 12.0 | 0.01 | 1.17 | 0.06 | 79 | 999.5 |
| 20260509050906 | 56 | 288 | 5.0 | 12.0 | 0.01 | 1.19 | 0.06 | 79 | 999.6 |
| 20260509045907 | 56 | 204 | 6.0 | 14.0 | 0.01 | 1.23 | 0.06 | 78 | 999.5 |
| 20260509044906 | 57 | 222 | 7.0 | 15.0 | 0.01 | 1.25 | 0.06 | 77 | 999.5 |
| 20260509044406 | 57 | 231 | 7.0 | 15.0 | 0.01 | 1.26 | 0.06 | 76 | 999.4 |
| 20260509043907 | 57 | 223 | 3.0 | 15.0 | 0.01 | 1.27 | 0.06 | 77 | 999.4 |
| 20260509043406 | 57 | 205 | 8.0 | 18.0 | 0.01 | 1.27 | 0.06 | 76 | 999.3 |
| 20260509042907 | 57 | 207 | 6.0 | 20.0 | 0.01 | 1.28 | 0.06 | 76 | 999.4 |
| 20260509042407 | 57 | 252 | 7.0 | 20.0 | 0.00 | 1.28 | 0.05 | 76 | 999.4 |
| 20260509041907 | 57 | 210 | 6.0 | 17.0 | 0.00 | 1.28 | 0.05 | 76 | 999.4 |
| 20260509041407 | 57 | 232 | 6.0 | 15.0 | 0.00 | 1.28 | 0.05 | 76 | 999.4 |
| 20260509040906 | 58 | 226 | 5.0 | 15.0 | 0.00 | 1.28 | 0.05 | 76 | 999.5 |
| 20260509040408 | 58 | 230 | 7.0 | 21.0 | 0.00 | 1.28 | 0.05 | 76 | 999.4 |
| 20260509035409 | 58 | 247 | 6.0 | 18.0 | 0.00 | 1.28 | 0.05 | 77 | 999.3 |
| 20260509034407 | 58 | 322 | 9.0 | 18.0 | 0.00 | 1.29 | 0.05 | 76 | 999.4 |
| 20260509033908 | 58 | 199 | 10.0 | 22.0 | 0.00 | 1.29 | 0.05 | 76 | 999.4 |
| 20260509032907 | 58 | 233 | 7.0 | 21.0 | 0.00 | 1.31 | 0.05 | 75 | 999.3 |
| 20260509032406 | 58 | 206 | 10.0 | 23.0 | 0.00 | 1.31 | 0.05 | 75 | 999.2 |
| 20260509031407 | 58 | 216 | 12.0 | 25.0 | 0.00 | 1.31 | 0.05 | 76 | 999.2 |
| 20260509030906 | 58 | 219 | 9.0 | 25.0 | 0.00 | 1.31 | 0.05 | 76 | 999.2 |
| 20260509030406 | 58 | 183 | 7.0 | 21.0 | 0.00 | 1.31 | 0.05 | 76 | 999.2 |
| 20260509025406 | 59 | 220 | 9.0 | 21.0 | 0.00 | 1.32 | 0.05 | 76 | 999.3 |
| 20260509024906 | 59 | 198 | 11.0 | 24.0 | 0.00 | 1.33 | 0.05 | 75 | 999.5 |
| 20260509024407 | 60 | 224 | 10.0 | 25.0 | 0.00 | 1.35 | 0.05 | 75 | 999.3 |
| 20260509023907 | 60 | 217 | 9.0 | 22.0 | 0.00 | 1.37 | 0.05 | 75 | 999.3 |
| 20260509022906 | 60 | 230 | 8.0 | 20.0 | 0.00 | 1.39 | 0.05 | 76 | 999.2 |
| 20260509022406 | 60 | 303 | 7.0 | 18.0 | 0.00 | 1.40 | 0.05 | 77 | 999.2 |
| 20260509021406 | 59 | 328 | 10.0 | 29.0 | 0.00 | 1.42 | 0.05 | 79 | 999.2 |
| 20260509020906 | 59 | 329 | 9.0 | 23.0 | 0.00 | 1.42 | 0.05 | 78 | 999.1 |
| 20260509020407 | 59 | 205 | 10.0 | 22.0 | 0.00 | 1.42 | 0.05 | 77 | 999.0 |
| 20260509015407 | 60 | 231 | 6.0 | 16.0 | 0.00 | 1.43 | 0.05 | 76 | 999.0 |
| 20260509014906 | 61 | 338 | 7.0 | 20.0 | 0.00 | 1.43 | 0.05 | 75 | 998.9 |
| 20260509014406 | 61 | 236 | 9.0 | 22.0 | 0.00 | 1.43 | 0.05 | 75 | 998.8 |
| 20260509013906 | 61 | 245 | 7.0 | 21.0 | 0.00 | 1.44 | 0.05 | 77 | 998.9 |
| 20260509013407 | 61 | 262 | 10.0 | 23.0 | 0.00 | 1.44 | 0.05 | 77 | 998.8 |
| 20260509012906 | 61 | 251 | 8.0 | 21.0 | 0.00 | 1.44 | 0.05 | 77 | 998.7 |
| 20260509012406 | 61 | 228 | 9.0 | 21.0 | 0.00 | 1.44 | 0.05 | 76 | 998.7 |
| 20260509011906 | 61 | 244 | 9.0 | 25.0 | 0.00 | 1.44 | 0.05 | 76 | 998.8 |
| 20260509011406 | 61 | 197 | 10.0 | 24.0 | 0.00 | 1.44 | 0.05 | 76 | 998.9 |
| 20260509010906 | 60 | 335 | 7.0 | 20.0 | 0.00 | 1.44 | 0.05 | 78 | 999.0 |
| 20260509005906 | 60 | 254 | 7.0 | 18.0 | 0.00 | 1.44 | 0.05 | 79 | 999.1 |
| 20260509005407 | 60 | 221 | 10.0 | 20.0 | 0.00 | 1.45 | 0.05 | 79 | 999.0 |
| 20260509004907 | 60 | 203 | 10.0 | 21.0 | 0.00 | 1.45 | 0.05 | 79 | 999.0 |
| 20260509004407 | 60 | 215 | 9.0 | 25.0 | 0.00 | 1.45 | 0.05 | 79 | 999.0 |
| 20260509003908 | 60 | 201 | 9.0 | 20.0 | 0.00 | 1.45 | 0.05 | 80 | 999.0 |
| 20260509002906 | 60 | 209 | 10.0 | 20.0 | 0.00 | 1.45 | 0.05 | 81 | 999.2 |
| 20260509001408 | 60 | 195 | 10.0 | 20.0 | 0.00 | 1.45 | 0.05 | 81 | 999.2 |
| 20260509000407 | 60 | 223 | 9.0 | 22.0 | 0.00 | 1.45 | 0.05 | 82 | 999.2 |
| 20260508235906 | 60 | 218 | 10.0 | 23.0 | 0.00 | 1.45 | 0.05 | 83 | 999.1 |
| 20260508235406 | 60 | 327 | 10.0 | 21.0 | 0.00 | 1.45 | 0.05 | 83 | 999.1 |
| 20260508234907 | 60 | 225 | 10.0 | 23.0 | 0.00 | 1.45 | 0.05 | 84 | 999.1 |
| 20260508234407 | 60 | 213 | 11.0 | 23.0 | 0.00 | 1.45 | 0.05 | 85 | 999.1 |
| 20260508233907 | 60 | 279 | 8.0 | 24.0 | 0.00 | 1.45 | 0.05 | 87 | 999.1 |
| 20260508233408 | 59 | 211 | 10.0 | 24.0 | 0.01 | 1.45 | 0.05 | 87 | 999.0 |
| 20260508232907 | 60 | 346 | 9.0 | 21.0 | 0.01 | 1.45 | 0.05 | 88 | 998.9 |
| 20260508232407 | 60 | 276 | 6.0 | 20.0 | 0.01 | 1.45 | 0.05 | 88 | 999.0 |
| 20260508231907 | 59 | 296 | 9.0 | 22.0 | 0.01 | 1.45 | 0.05 | 89 | 999.0 |
| 20260508231408 | 59 | 248 | 7.0 | 15.0 | 0.01 | 1.45 | 0.05 | 89 | 999.1 |
| 20260508230906 | 59 | 221 | 6.0 | 17.0 | 0.01 | 1.45 | 0.05 | 89 | 999.0 |
| 20260508230407 | 59 | 258 | 7.0 | 18.0 | 0.01 | 1.45 | 0.05 | 89 | 999.0 |
| 20260508225409 | 58 | 320 | 6.0 | 15.0 | 0.02 | 1.45 | 0.05 | 89 | 999.0 |
| 20260508224907 | 59 | 308 | 4.0 | 14.0 | 0.02 | 1.45 | 0.05 | 89 | 999.0 |
| 20260508224407 | 59 | 264 | 7.0 | 13.0 | 0.02 | 1.46 | 0.05 | 89 | 998.9 |
| 20260508223907 | 59 | 209 | 8.0 | 22.0 | 0.02 | 1.46 | 0.05 | 88 | 998.8 |
| 20260508223408 | 60 | 243 | 9.0 | 23.0 | 0.01 | 1.45 | 0.04 | 89 | 998.5 |
| 20260508222408 | 59 | 323 | 9.0 | 20.0 | 0.01 | 1.45 | 0.04 | 89 | 998.5 |
| 20260508221907 | 59 | 335 | 9.0 | 22.0 | 0.02 | 1.45 | 0.04 | 89 | 998.4 |
| 20260508221407 | 59 | 341 | 7.0 | 21.0 | 0.02 | 1.45 | 0.04 | 89 | 998.4 |
| 20260508220907 | 58 | 273 | 6.0 | 14.0 | 0.02 | 1.45 | 0.04 | 89 | 998.4 |
| 20260508220407 | 58 | 357 | 5.0 | 12.0 | 0.02 | 1.45 | 0.04 | 89 | 998.3 |
| 20260508215907 | 58 | 252 | 6.0 | 15.0 | 0.02 | 1.45 | 0.04 | 89 | 998.2 |
| 20260508215407 | 58 | 249 | 5.0 | 14.0 | 0.02 | 1.44 | 0.03 | 90 | 998.3 |
| 20260508214906 | 58 | 319 | 5.0 | 16.0 | 0.02 | 1.44 | 0.03 | 90 | 998.2 |
| 20260508213907 | 57 | 285 | 6.0 | 16.0 | 0.02 | 1.46 | 0.03 | 89 | 998.1 |
| 20260508212909 | 58 | 248 | 6.0 | 14.0 | 0.02 | 1.46 | 0.03 | 89 | 998.1 |
| 20260508212407 | 58 | 326 | 4.0 | 14.0 | 0.02 | 1.46 | 0.03 | 90 | 998.1 |
| 20260508211907 | 58 | 352 | 4.0 | 12.0 | 0.02 | 1.45 | 0.02 | 89 | 998.1 |
| 20260508211408 | 58 | 302 | 3.0 | 12.0 | 0.01 | 1.44 | 0.02 | 89 | 998.1 |
| 20260508210907 | 58 | 217 | 3.0 | 9.0 | 0.01 | 1.44 | 0.02 | 89 | 998.0 |
| 20260508205906 | 58 | 290 | 3.0 | 9.0 | 0.01 | 1.44 | 0.02 | 89 | 998.0 |
| 20260508205407 | 58 | 253 | 4.0 | 9.0 | 0.01 | 1.44 | 0.02 | 89 | 998.0 |
| 20260508204907 | 58 | 287 | 3.0 | 12.0 | 0.01 | 1.44 | 0.02 | 88 | 997.9 |
| 20260508203906 | 58 | 291 | 2.0 | 9.0 | 0.00 | 1.43 | 0.01 | 88 | 997.7 |
| 20260508203406 | 58 | 226 | 4.0 | 8.0 | 0.00 | 1.43 | 0.01 | 88 | 997.6 |
| 20260508202906 | 58 | 213 | 2.0 | 8.0 | 0.00 | 1.43 | 0.01 | 88 | 997.5 |
| 20260508202407 | 58 | 306 | 4.0 | 12.0 | 0.00 | 1.43 | 0.01 | 87 | 997.5 |
| 20260508201907 | 58 | 303 | 3.0 | 15.0 | 0.00 | 1.43 | 0.01 | 87 | 997.5 |
| 20260508201407 | 59 | 265 | 3.0 | 12.0 | 0.00 | 1.43 | 0.01 | 86 | 997.5 |
| 20260508200906 | 59 | 239 | 4.0 | 12.0 | 0.00 | 1.43 | 0.01 | 85 | 997.5 |
| 20260508200407 | 59 | 285 | 6.0 | 16.0 | 0.00 | 1.43 | 0.01 | 84 | 997.3 |
| 20260508194906 | 60 | 339 | 10.0 | 20.0 | 0.00 | 1.43 | 0.01 | 84 | 997.2 |
| 20260508194408 | 60 | 345 | 9.0 | 20.0 | 0.00 | 1.43 | 0.01 | 84 | 997.1 |
| 20260508193408 | 60 | 343 | 12.0 | 22.0 | 0.00 | 1.43 | 0.01 | 83 | 996.9 |
| 20260508192408 | 60 | 344 | 12.0 | 23.0 | 0.00 | 1.43 | 0.01 | 83 | 996.8 |
| 20260508191907 | 60 | 339 | 13.0 | 21.0 | 0.00 | 1.43 | 0.01 | 84 | 997.0 |
| 20260508191408 | 60 | 352 | 14.0 | 24.0 | 0.00 | 1.43 | 0.01 | 84 | 996.9 |
| 20260508190906 | 60 | 337 | 13.0 | 23.0 | 0.00 | 1.43 | 0.01 | 84 | 996.8 |
| 20260508190408 | 60 | 353 | 12.0 | 22.0 | 0.00 | 1.43 | 0.01 | 84 | 996.7 |
| 20260508185407 | 60 | 351 | 12.0 | 26.0 | 0.00 | 1.44 | 0.01 | 84 | 996.6 |
| 20260508183906 | 60 | 346 | 13.0 | 23.0 | 0.00 | 1.48 | 0.01 | 84 | 996.7 |
| 20260508183407 | 60 | 340 | 13.0 | 25.0 | 0.00 | 1.50 | 0.01 | 84 | 996.9 |
| 20260508182907 | 60 | 344 | 8.0 | 21.0 | 0.00 | 1.50 | 0.01 | 83 | 996.9 |
| 20260508182406 | 60 | 352 | 10.0 | 20.0 | 0.00 | 1.50 | 0.01 | 82 | 997.0 |
| 20260508181906 | 60 | 349 | 13.0 | 23.0 | 0.00 | 1.51 | 0.01 | 82 | 997.1 |
| 20260508181408 | 60 | 337 | 12.0 | 22.0 | 0.00 | 1.52 | 0.01 | 81 | 997.2 |
| 20260508180408 | 60 | 343 | 10.0 | 20.0 | 0.00 | 1.54 | 0.01 | 83 | 997.3 |
| 20260508175907 | 61 | 332 | 13.0 | 25.0 | 0.00 | 1.55 | 0.01 | 82 | 997.4 |
| 20260508175408 | 61 | 352 | 12.0 | 30.0 | 0.00 | 1.57 | 0.01 | 81 | 997.5 |
| 20260508174906 | 61 | 346 | 11.0 | 24.0 | 0.00 | 1.59 | 0.01 | 81 | 997.5 |
| 20260508174408 | 61 | 352 | 9.0 | 20.0 | 0.00 | 1.61 | 0.01 | 81 | 997.5 |
| 20260508173906 | 61 | 351 | 12.0 | 24.0 | 0.00 | 1.68 | 0.01 | 80 | 997.6 |
| 20260508173408 | 61 | 344 | 14.0 | 25.0 | 0.00 | 1.76 | 0.01 | 81 | 997.6 |
| 20260508172907 | 61 | 353 | 16.0 | 26.0 | 0.00 | 1.76 | 0.01 | 81 | 997.6 |
| 20260508172407 | 60 | 348 | 14.0 | 31.0 | 0.00 | 1.77 | 0.01 | 82 | 997.7 |
| 20260508171907 | 60 | 348 | 12.0 | 20.0 | 0.00 | 1.78 | 0.01 | 82 | 997.7 |
| 20260508171408 | 60 | 344 | 12.0 | 26.0 | 0.00 | 1.79 | 0.01 | 82 | 997.7 |
| 20260508170907 | 60 | 353 | 10.0 | 23.0 | 0.00 | 1.79 | 0.01 | 82 | 997.7 |
| 20260508170407 | 60 | 354 | 13.0 | 25.0 | 0.00 | 1.80 | 0.01 | 82 | 997.7 |
| 20260508165906 | 61 | 352 | 13.0 | 26.0 | 0.00 | 1.81 | 0.01 | 82 | 997.6 |
| 20260508165408 | 61 | 8 | 18.0 | 35.0 | 0.00 | 1.82 | 0.01 | 81 | 997.7 |
| 20260508164906 | 61 | 346 | 9.0 | 20.0 | 0.00 | 1.83 | 0.01 | 80 | 997.5 |
| 20260508164408 | 61 | 356 | 11.0 | 25.0 | 0.00 | 1.84 | 0.01 | 80 | 997.6 |
| 20260508163408 | 62 | 353 | 13.0 | 35.0 | 0.00 | 1.87 | 0.01 | 79 | 997.5 |
| 20260508162907 | 61 | 349 | 15.0 | 26.0 | 0.01 | 1.87 | 0.01 | 81 | 997.4 |
| 20260508161407 | 61 | 344 | 13.0 | 25.0 | 0.01 | 1.90 | 0.01 | 82 | 997.3 |
| 20260508160906 | 61 | 351 | 11.0 | 24.0 | 0.01 | 1.90 | 0.01 | 83 | 997.3 |
| 20260508160408 | 60 | 347 | 12.0 | 22.0 | 0.01 | 1.90 | 0.01 | 83 | 997.4 |
| 20260508155906 | 60 | 341 | 13.0 | 22.0 | 0.01 | 1.91 | 0.01 | 83 | 997.5 |
| 20260508155407 | 60 | 345 | 12.0 | 26.0 | 0.01 | 1.91 | 0.01 | 83 | 997.7 |
| 20260508154906 | 60 | 341 | 17.0 | 32.0 | 0.01 | 1.91 | 0.01 | 83 | 997.7 |
| 20260508153907 | 59 | 344 | 16.0 | 26.0 | 0.01 | 1.91 | 0.01 | 84 | 997.7 |
| 20260508153407 | 61 | 344 | 18.0 | 39.0 | 0.01 | 1.91 | 0.01 | 83 | 997.7 |
| 20260508152907 | 61 | 347 | 17.0 | 33.0 | 0.00 | 1.91 | 0.00 | 82 | 997.6 |
| 20260508152408 | 61 | 354 | 14.0 | 26.0 | 0.00 | 1.91 | 0.00 | 82 | 997.4 |
| 20260508151910 | 61 | 355 | 15.0 | 29.0 | 0.00 | 1.91 | 0.00 | 82 | 997.5 |
| 20260508150906 | 61 | 358 | 17.0 | 30.0 | 0.00 | 1.91 | 0.00 | 80 | 997.8 |
| 20260508145906 | 62 | 1 | 17.0 | 28.0 | 0.00 | 1.91 | 0.00 | 78 | 997.6 |
| 20260508144906 | 61 | 350 | 16.0 | 26.0 | 0.00 | 1.91 | 0.00 | 79 | 997.7 |
| 20260508143907 | 61 | 351 | 16.0 | 26.0 | 0.00 | 1.91 | 0.00 | 80 | 997.9 |
| 20260508143406 | 62 | 348 | 18.0 | 30.0 | 0.00 | 1.91 | 0.00 | 78 | 998.0 |
| 20260508142906 | 63 | 345 | 14.0 | 35.0 | 0.00 | 1.91 | 0.00 | 77 | 998.0 |
| 20260508142406 | 63 | 340 | 15.0 | 26.0 | 0.00 | 1.91 | 0.00 | 77 | 998.1 |
| 20260508141406 | 62 | 350 | 16.0 | 30.0 | 0.00 | 1.91 | 0.00 | 77 | 998.2 |
| 20260508140907 | 62 | 348 | 20.0 | 33.0 | 0.00 | 1.91 | 0.00 | 78 | 998.2 |